Location: Walnut Hills Mobile Home Park
(34.0445°N, 117.8184°W)
Time: 02:29:43
(UTC+00:00)

OAO 3 Rocket - Pass Details

Date: 17 December 2025
Orbit: 613 x 661 km, 35.0° (Epoch: 15 January)

Event Time Altitude Azimuth Distance (km) Brightness Sun altitude
Exits shadow 13:02:21 63° 295° (WNW) 691 2.9 -21.8°
Maximum altitude 13:03:02 80° 4° (N) 633 3.0 -21.6°
Drops below altitude 10° 13:07:41 10° 92° (E) 1,999 6.8 -20.7°
Sets 13:10:03 0° 93° (E) 2,915 8.0 -20.2°
